Starlink 31431

operational
NORAD ID: 59002 Int'l Des: 2024-036 Owner: SPXS Country: US Constellation: starlink
LEOCIRCULAR

About Starlink 31431

Description loading...

Live Position

Loading 3D Globe...

Upcoming Passes

Altitude History

Altitude vs Time

uPlot chart will show altitude changes over time

Two-Line Element Set

1 59002U 24036E 26035.85907698 .00000937 00000-0 43757-4 0 9998
2 59002 53.1609 230.8447 0001134 95.8078 264.3052 15.30186897110299
Epoch: Feb 4, 2026 • Age: 13 hours

Current Status

Altitude 475.6 km
Velocity 7.63 km/s
Sub-Earth Point 3.24°N, 121.43°E
Launch Date Feb 23, 2024
Age 1.9 years
Type internet

Technical Details

Classification Payload
Mass 730.00 kg
Dry Mass 700.00 kg
Total Mass 730.00 kg
Length 0.30 m
Diameter 4.10 m
Span 29.00 m
Shape Box + pan
Manufacturer SPXS
Bus Type Starlink V2M
Phase Status In Orbit
Owner/State SPXS/US

Large Constellations

Loading constellations...